| time (UTC) | temp F | wind direction | speed MPH | gust MPH | rain 1hr in | rain 24hr in | rain mn in | humidity % | barometer mb |
| 20260505214442 | 49 | 195 | 8.0 | 16.0 | 0.00 | 0.00 | 0.00 | 54 | 1004.0 |
| 20260505213941 | 49 | 197 | 9.0 | 19.0 | 0.00 | 0.00 | 0.00 | 55 | 1003.9 |
| 20260505213443 | 49 | 144 | 8.0 | 19.0 | 0.00 | 0.00 | 0.00 | 54 | 1004.0 |
| 20260505212938 | 49 | 151 | 7.0 | 16.0 | 0.00 | 0.00 | 0.00 | 55 | 1004.0 |
| 20260505212442 | 49 | 189 | 7.0 | 16.0 | 0.00 | 0.00 | 0.00 | 56 | 1003.9 |
| 20260505212438 | 49 | 175 | 8.0 | 16.0 | 0.00 | 0.00 | 0.00 | 56 | 1004.0 |
| 20260505211439 | 48 | 144 | 8.0 | 19.0 | 0.00 | 0.00 | 0.00 | 56 | 1003.9 |
| 20260505210937 | 48 | 176 | 8.0 | 19.0 | 0.00 | 0.00 | 0.00 | 56 | 1003.9 |
| 20260505210433 | 49 | 142 | 8.0 | 17.0 | 0.00 | 0.00 | 0.00 | 55 | 1003.9 |
| 20260505205934 | 49 | 172 | 9.0 | 17.0 | 0.00 | 0.00 | 0.00 | 54 | 1004.0 |
| 20260505205434 | 49 | 174 | 9.0 | 17.0 | 0.00 | 0.00 | 0.00 | 54 | 1003.9 |
| 20260505204930 | 49 | 136 | 7.0 | 15.0 | 0.00 | 0.00 | 0.00 | 54 | 1003.9 |
| 20260505204429 | 49 | 112 | 6.0 | 15.0 | 0.00 | 0.00 | 0.00 | 52 | 1004.0 |
| 20260505203929 | 49 | 190 | 6.0 | 14.0 | 0.00 | 0.00 | 0.00 | 53 | 1003.9 |
| 20260505203429 | 49 | 154 | 7.0 | 16.0 | 0.00 | 0.00 | 0.00 | 53 | 1003.9 |
| 20260505202929 | 49 | 147 | 8.0 | 19.0 | 0.00 | 0.00 | 0.00 | 52 | 1003.9 |
| 20260505202423 | 49 | 163 | 6.0 | 19.0 | 0.00 | 0.00 | 0.00 | 51 | 1003.9 |
| 20260505201928 | 49 | 218 | 8.0 | 16.0 | 0.00 | 0.00 | 0.00 | 52 | 1003.9 |
| 20260505201923 | 49 | 192 | 6.0 | 16.0 | 0.00 | 0.00 | 0.00 | 52 | 1003.8 |
| 20260505200923 | 49 | 135 | 8.0 | 15.0 | 0.00 | 0.00 | 0.00 | 51 | 1003.9 |
| 20260505200424 | 49 | 174 | 7.0 | 16.0 | 0.00 | 0.00 | 0.00 | 51 | 1003.8 |
| 20260505195924 | 49 | 184 | 6.0 | 16.0 | 0.00 | 0.00 | 0.00 | 51 | 1003.8 |
| 20260505195427 | 49 | 137 | 6.0 | 15.0 | 0.00 | 0.00 | 0.00 | 52 | 1003.8 |
| 20260505195423 | 49 | 202 | 6.0 | 12.0 | 0.00 | 0.01 | 0.00 | 52 | 1003.7 |
| 20260505194422 | 49 | 145 | 6.0 | 14.0 | 0.00 | 0.01 | 0.00 | 52 | 1003.7 |
| 20260505193922 | 48 | 137 | 6.0 | 14.0 | 0.00 | 0.01 | 0.00 | 52 | 1003.6 |
| 20260505193421 | 48 | 169 | 6.0 | 13.0 | 0.00 | 0.01 | 0.00 | 51 | 1003.7 |
| 20260505192921 | 48 | 189 | 6.0 | 12.0 | 0.00 | 0.01 | 0.00 | 53 | 1003.7 |
| 20260505192422 | 48 | 163 | 5.0 | 12.0 | 0.00 | 0.01 | 0.00 | 53 | 1003.7 |
| 20260505191921 | 48 | 90 | 5.0 | 11.0 | 0.00 | 0.01 | 0.00 | 53 | 1003.7 |
| 20260505191421 | 48 | 185 | 6.0 | 13.0 | 0.00 | 0.01 | 0.00 | 53 | 1003.6 |
| 20260505190922 | 48 | 201 | 7.0 | 14.0 | 0.00 | 0.01 | 0.00 | 54 | 1003.6 |
| 20260505190422 | 48 | 181 | 7.0 | 14.0 | 0.00 | 0.01 | 0.00 | 54 | 1003.6 |
| 20260505185921 | 48 | 170 | 6.0 | 13.0 | 0.00 | 0.01 | 0.00 | 54 | 1003.5 |
| 20260505185426 | 48 | 135 | 6.0 | 13.0 | 0.00 | 0.01 | 0.00 | 54 | 1003.3 |
| 20260505185422 | 48 | 218 | 6.0 | 12.0 | 0.00 | 0.01 | 0.00 | 55 | 1003.5 |
| 20260505184421 | 48 | 176 | 6.0 | 13.0 | 0.00 | 0.01 | 0.00 | 54 | 1003.4 |
| 20260505183921 | 48 | 187 | 6.0 | 14.0 | 0.00 | 0.01 | 0.00 | 53 | 1003.3 |
| 20260505183422 | 48 | 158 | 5.0 | 14.0 | 0.00 | 0.01 | 0.00 | 52 | 1003.4 |
| 20260505182922 | 48 | 160 | 4.0 | 11.0 | 0.00 | 0.01 | 0.00 | 53 | 1003.3 |
| 20260505182422 | 48 | 183 | 5.0 | 12.0 | 0.00 | 0.01 | 0.00 | 53 | 1003.2 |
| 20260505181926 | 48 | 209 | 6.0 | 11.0 | 0.00 | 0.01 | 0.00 | 51 | 1003.2 |
| 20260505181922 | 48 | 187 | 6.0 | 12.0 | 0.00 | 0.01 | 0.00 | 51 | 1003.2 |
| 20260505180922 | 48 | 145 | 5.0 | 12.0 | 0.00 | 0.01 | 0.00 | 50 | 1003.1 |
| 20260505180422 | 48 | 156 | 6.0 | 16.0 | 0.00 | 0.02 | 0.00 | 51 | 1003.0 |
| 20260505175921 | 48 | 172 | 5.0 | 16.0 | 0.00 | 0.02 | 0.00 | 51 | 1002.9 |
| 20260505175421 | 48 | 195 | 6.0 | 13.0 | 0.00 | 0.02 | 0.00 | 51 | 1002.9 |
| 20260505174915 | 48 | 158 | 6.0 | 16.0 | 0.00 | 0.02 | 0.00 | 51 | 1002.9 |
| 20260505174420 | 48 | 179 | 6.0 | 15.0 | 0.00 | 0.02 | 0.00 | 51 | 1002.8 |
| 20260505174415 | 48 | 166 | 6.0 | 16.0 | 0.00 | 0.02 | 0.00 | 51 | 1002.9 |
| 20260505173415 | 48 | 176 | 6.0 | 14.0 | 0.00 | 0.02 | 0.00 | 52 | 1002.8 |
| 20260505172915 | 48 | 150 | 6.0 | 14.0 | 0.00 | 0.02 | 0.00 | 52 | 1002.8 |
| 20260505172415 | 48 | 132 | 6.0 | 18.0 | 0.00 | 0.02 | 0.00 | 52 | 1002.7 |
| 20260505171920 | 48 | 184 | 7.0 | 16.0 | 0.00 | 0.03 | 0.00 | 52 | 1002.8 |
| 20260505171915 | 48 | 126 | 6.0 | 18.0 | 0.00 | 0.03 | 0.00 | 51 | 1002.7 |
| 20260505170916 | 47 | 118 | 7.0 | 16.0 | 0.00 | 0.03 | 0.00 | 53 | 1002.7 |
| 20260505170416 | 47 | 104 | 6.0 | 14.0 | 0.00 | 0.04 | 0.00 | 55 | 1002.6 |
| 20260505165916 | 47 | 166 | 7.0 | 14.0 | 0.00 | 0.04 | 0.00 | 55 | 1002.6 |
| 20260505165419 | 46 | 118 | 7.0 | 14.0 | 0.00 | 0.04 | 0.00 | 56 | 1002.5 |
| 20260505165415 | 46 | 126 | 6.0 | 14.0 | 0.00 | 0.04 | 0.00 | 56 | 1002.5 |
| 20260505164413 | 46 | 162 | 7.0 | 15.0 | 0.00 | 0.04 | 0.00 | 56 | 1002.5 |
| 20260505163913 | 46 | 145 | 8.0 | 18.0 | 0.00 | 0.05 | 0.00 | 56 | 1002.5 |
| 20260505163413 | 46 | 156 | 8.0 | 16.0 | 0.00 | 0.05 | 0.00 | 56 | 1002.4 |
| 20260505162914 | 46 | 191 | 7.0 | 16.0 | 0.00 | 0.05 | 0.00 | 56 | 1002.4 |
| 20260505162413 | 46 | 160 | 7.0 | 16.0 | 0.00 | 0.05 | 0.00 | 58 | 1002.4 |
| 20260505161912 | 46 | 141 | 8.0 | 16.0 | 0.00 | 0.05 | 0.00 | 58 | 1002.5 |
| 20260505161412 | 46 | 145 | 8.0 | 16.0 | 0.00 | 0.05 | 0.00 | 57 | 1002.4 |
| 20260505160911 | 46 | 178 | 7.0 | 16.0 | 0.00 | 0.05 | 0.00 | 57 | 1002.3 |
| 20260505160412 | 46 | 104 | 6.0 | 14.0 | 0.00 | 0.05 | 0.00 | 58 | 1002.3 |
| 20260505152911 | 42 | 70 | 2.0 | 5.0 | 0.00 | 0.06 | 0.00 | 76 | 1002.2 |
| 20260505152907 | 43 | 142 | 2.0 | 8.0 | 0.00 | 0.06 | 0.00 | 72 | 1002.1 |
| 20260505151905 | 42 | 85 | 2.0 | 5.0 | 0.00 | 0.06 | 0.00 | 77 | 1002.1 |
| 20260505151406 | 42 | 33 | 2.0 | 5.0 | 0.00 | 0.06 | 0.00 | 78 | 1002.0 |
| 20260505150859 | 42 | 85 | 2.0 | 6.0 | 0.00 | 0.06 | 0.00 | 79 | 1002.0 |
| 20260505150357 | 42 | 85 | 2.0 | 6.0 | 0.00 | 0.06 | 0.00 | 79 | 1002.0 |
| 20260505140341 | 41 | 105 | 2.0 | 7.0 | 0.00 | 0.09 | 0.00 | 85 | 1001.8 |
| 20260505124833 | 38 | 351 | 1.0 | 4.0 | 0.00 | 0.12 | 0.00 | 95 | 1001.6 |
| 20260505124829 | 38 | 328 | 1.0 | 4.0 | 0.00 | 0.11 | 0.00 | 95 | 1001.6 |
| 20260505123829 | 38 | 351 | 1.0 | 4.0 | 0.00 | 0.12 | 0.00 | 95 | 1001.7 |
| 20260505123328 | 38 | 351 | 1.0 | 4.0 | 0.00 | 0.12 | 0.00 | 96 | 1001.6 |
| 20260505122826 | 38 | 351 | 0.0 | 3.0 | 0.00 | 0.12 | 0.00 | 95 | 1001.6 |
| 20260505122326 | 38 | 351 | 0.0 | 2.0 | 0.00 | 0.12 | 0.00 | 95 | 1001.5 |
| 20260505122321 | 38 | 351 | 0.0 | 3.0 | 0.00 | 0.13 | 0.00 | 95 | 1001.6 |
| 20260505121319 | 38 | 351 | 0.0 | 3.0 | 0.00 | 0.13 | 0.00 | 95 | 1001.5 |
| 20260505120920 | 38 | 351 | 2.0 | 5.0 | 0.00 | 0.13 | 0.00 | 95 | 1001.4 |
| 20260505120821 | 38 | 351 | 1.0 | 5.0 | 0.00 | 0.13 | 0.00 | 95 | 1001.4 |
| 20260505120817 | 38 | 337 | 2.0 | 5.0 | 0.00 | 0.13 | 0.00 | 95 | 1001.4 |
| 20260505115315 | 38 | 91 | 1.0 | 4.0 | 0.00 | 0.14 | 0.00 | 95 | 1001.5 |
| 20260505114817 | 38 | 233 | 1.0 | 3.0 | 0.00 | 0.14 | 0.00 | 96 | 1001.5 |
| 20260505114813 | 38 | 227 | 1.0 | 4.0 | 0.00 | 0.14 | 0.00 | 96 | 1001.5 |
| 20260505113811 | 38 | 191 | 0.0 | 3.0 | 0.00 | 0.15 | 0.00 | 96 | 1001.5 |
| 20260505113309 | 38 | 190 | 0.0 | 3.0 | 0.00 | 0.15 | 0.00 | 95 | 1001.5 |
| 20260505112808 | 38 | 203 | 0.0 | 0.0 | 0.00 | 0.15 | 0.00 | 95 | 1001.5 |
| 20260505112307 | 38 | 203 | 0.0 | 1.0 | 0.00 | 0.15 | 0.00 | 95 | 1001.6 |
| 20260505111805 | 38 | 203 | 0.0 | 3.0 | 0.00 | 0.15 | 0.00 | 95 | 1001.7 |
| 20260505111305 | 38 | 202 | 1.0 | 3.0 | 0.00 | 0.15 | 0.00 | 95 | 1001.7 |
| 20260505110805 | 38 | 293 | 0.0 | 3.0 | 0.00 | 0.16 | 0.00 | 95 | 1001.6 |
| 20260505110305 | 38 | 293 | 0.0 | 2.0 | 0.00 | 0.16 | 0.00 | 95 | 1001.5 |
| 20260505101902 | 39 | 292 | 1.0 | 3.0 | 0.00 | 0.18 | 0.00 | 95 | 1001.8 |
| 20260505101404 | 39 | 292 | 2.0 | 4.0 | 0.00 | 0.18 | 0.00 | 95 | 1001.6 |
| 20260505100254 | 39 | 291 | 1.0 | 4.0 | 0.00 | 0.18 | 0.00 | 95 | 1001.7 |
| 20260505095754 | 39 | 278 | 1.0 | 4.0 | 0.00 | 0.18 | 0.00 | 95 | 1001.7 |
| 20260505095253 | 39 | 282 | 1.0 | 5.0 | 0.00 | 0.18 | 0.00 | 95 | 1001.4 |
| 20260505094752 | 40 | 233 | 1.0 | 5.0 | 0.00 | 0.19 | 0.00 | 95 | 1001.6 |
| 20260505094252 | 40 | 249 | 0.0 | 3.0 | 0.00 | 0.19 | 0.00 | 95 | 1001.5 |
| 20260505094247 | 40 | 301 | 1.0 | 3.0 | 0.00 | 0.19 | 0.00 | 95 | 1001.5 |
| 20260505093245 | 40 | 301 | 1.0 | 3.0 | 0.00 | 0.19 | 0.00 | 94 | 1001.5 |
| 20260505092745 | 40 | 301 | 1.0 | 2.0 | 0.00 | 0.19 | 0.00 | 94 | 1001.5 |
| 20260505092243 | 40 | 301 | 1.0 | 2.0 | 0.00 | 0.19 | 0.00 | 94 | 1001.4 |
| 20260505091743 | 40 | 301 | 1.0 | 3.0 | 0.00 | 0.19 | 0.00 | 94 | 1001.4 |
| 20260505091242 | 40 | 301 | 1.0 | 3.0 | 0.00 | 0.19 | 0.00 | 94 | 1001.5 |
| 20260505090742 | 40 | 301 | 1.0 | 3.0 | 0.00 | 0.19 | 0.00 | 94 | 1001.5 |
| 20260505090246 | 40 | 301 | 2.0 | 6.0 | 0.00 | 0.19 | 0.00 | 93 | 1001.6 |
| 20260505090242 | 40 | 301 | 1.0 | 4.0 | 0.00 | 0.19 | 0.00 | 94 | 1001.5 |
| 20260505085243 | 40 | 301 | 1.0 | 6.0 | 0.00 | 0.19 | 0.00 | 93 | 1001.7 |
| 20260505084743 | 40 | 289 | 1.0 | 3.0 | 0.00 | 0.20 | 0.00 | 93 | 1001.8 |
| 20260505084242 | 41 | 291 | 1.0 | 3.0 | 0.00 | 0.20 | 0.00 | 92 | 1001.7 |
| 20260505083742 | 41 | 252 | 1.0 | 4.0 | 0.00 | 0.20 | 0.00 | 91 | 1001.6 |
| 20260505083247 | 42 | 276 | 2.0 | 4.0 | 0.00 | 0.21 | 0.00 | 89 | 1001.6 |
| 20260505083242 | 41 | 252 | 1.0 | 4.0 | 0.00 | 0.20 | 0.00 | 90 | 1001.5 |
| 20260505082243 | 42 | 256 | 2.0 | 5.0 | 0.00 | 0.21 | 0.00 | 88 | 1001.7 |
| 20260505081743 | 43 | 221 | 2.0 | 5.0 | 0.00 | 0.21 | 0.00 | 86 | 1001.7 |
| 20260505081243 | 44 | 208 | 1.0 | 3.0 | 0.00 | 0.21 | 0.00 | 84 | 1001.6 |
| 20260505080740 | 44 | 208 | 1.0 | 3.0 | 0.00 | 0.21 | 0.00 | 82 | 1001.6 |
| 20260505080239 | 45 | 208 | 2.0 | 4.0 | 0.00 | 0.21 | 0.00 | 81 | 1001.5 |
| 20260505075739 | 45 | 201 | 2.0 | 6.0 | 0.00 | 0.21 | 0.21 | 80 | 1001.6 |
| 20260505075239 | 45 | 179 | 2.0 | 6.0 | 0.00 | 0.21 | 0.21 | 81 | 1001.7 |
| 20260505074744 | 44 | 127 | 1.0 | 3.0 | 0.00 | 0.22 | 0.21 | 83 | 1001.6 |
| 20260505074740 | 44 | 158 | 1.0 | 4.0 | 0.00 | 0.22 | 0.21 | 82 | 1001.7 |
| 20260505074348 | 44 | 131 | 2.0 | 3.0 | 0.00 | 0.22 | 0.21 | 82 | 1001.8 |
| 20260505074344 | 44 | 131 | 1.0 | 3.0 | 0.00 | 0.22 | 0.21 | 83 | 1001.6 |
| 20260505072739 | 44 | 156 | 2.0 | 5.0 | 0.00 | 0.22 | 0.21 | 82 | 1001.8 |
| 20260505072237 | 45 | 195 | 2.0 | 5.0 | 0.00 | 0.22 | 0.21 | 81 | 1001.8 |
| 20260505071737 | 45 | 200 | 2.0 | 6.0 | 0.00 | 0.22 | 0.21 | 80 | 1001.7 |
| 20260505071237 | 46 | 195 | 2.0 | 7.0 | 0.00 | 0.22 | 0.21 | 78 | 1001.8 |
| 20260505070737 | 46 | 227 | 3.0 | 9.0 | 0.00 | 0.22 | 0.21 | 75 | 1002.0 |
| 20260505070234 | 47 | 206 | 3.0 | 9.0 | 0.00 | 0.22 | 0.21 | 73 | 1002.1 |
| 20260505065737 | 48 | 243 | 3.0 | 8.0 | 0.00 | 0.22 | 0.21 | 70 | 1002.1 |
| 20260505065733 | 48 | 240 | 5.0 | 16.0 | 0.00 | 0.23 | 0.21 | 67 | 1002.0 |
| 20260505064734 | 49 | 175 | 6.0 | 16.0 | 0.00 | 0.23 | 0.21 | 66 | 1002.0 |
| 20260505064227 | 48 | 174 | 5.0 | 9.0 | 0.00 | 0.23 | 0.21 | 66 | 1002.0 |
| 20260505063727 | 49 | 206 | 4.0 | 7.0 | 0.00 | 0.23 | 0.21 | 66 | 1001.9 |
| 20260505063231 | 49 | 175 | 5.0 | 14.0 | 0.00 | 0.23 | 0.21 | 65 | 1001.9 |
| 20260505063227 | 49 | 209 | 3.0 | 11.0 | 0.00 | 0.23 | 0.21 | 65 | 1002.0 |
| 20260505062830 | 49 | 213 | 4.0 | 11.0 | 0.00 | 0.23 | 0.21 | 65 | 1001.9 |
| 20260505062330 | 49 | 179 | 5.0 | 14.0 | 0.00 | 0.24 | 0.21 | 65 | 1001.9 |
| 20260505061224 | 49 | 189 | 6.0 | 13.0 | 0.00 | 0.24 | 0.21 | 65 | 1002.1 |
| 20260505060724 | 49 | 188 | 7.0 | 13.0 | 0.00 | 0.24 | 0.21 | 65 | 1002.0 |
| 20260505060225 | 49 | 201 | 6.0 | 13.0 | 0.00 | 0.24 | 0.21 | 64 | 1002.0 |
| 20260505055725 | 50 | 166 | 6.0 | 15.0 | 0.00 | 0.25 | 0.21 | 63 | 1002.1 |
| 20260505055229 | 50 | 168 | 7.0 | 18.0 | 0.00 | 0.25 | 0.21 | 62 | 1002.1 |
| 20260505055225 | 50 | 156 | 7.0 | 18.0 | 0.00 | 0.25 | 0.21 | 63 | 1002.2 |
| 20260505054229 | 50 | 137 | 6.0 | 14.0 | 0.00 | 0.25 | 0.21 | 62 | 1002.2 |
| 20260505054225 | 50 | 158 | 7.0 | 18.0 | 0.00 | 0.25 | 0.21 | 62 | 1002.1 |
| 20260505053221 | 50 | 178 | 4.0 | 12.0 | 0.00 | 0.26 | 0.21 | 63 | 1002.3 |
| 20260505052726 | 50 | 157 | 7.0 | 18.0 | 0.00 | 0.26 | 0.21 | 63 | 1002.2 |
| 20260505052722 | 50 | 189 | 5.0 | 13.0 | 0.00 | 0.26 | 0.21 | 63 | 1002.4 |
| 20260505051723 | 50 | 154 | 5.0 | 12.0 | 0.00 | 0.26 | 0.21 | 64 | 1002.4 |
| 20260505051719 | 50 | 166 | 7.0 | 18.0 | 0.00 | 0.26 | 0.21 | 64 | 1002.3 |
| 20260505050719 | 50 | 161 | 5.0 | 15.0 | 0.00 | 0.27 | 0.21 | 64 | 1002.4 |
| 20260505050219 | 50 | 126 | 7.0 | 15.0 | 0.00 | 0.27 | 0.21 | 63 | 1002.4 |
| 20260505041718 | 51 | 125 | 8.0 | 23.0 | 0.00 | 0.29 | 0.21 | 63 | 1003.1 |
| 20260505041218 | 51 | 115 | 7.0 | 23.0 | 0.00 | 0.29 | 0.21 | 62 | 1003.2 |
| 20260505040719 | 51 | 130 | 5.0 | 15.0 | 0.00 | 0.29 | 0.21 | 61 | 1003.4 |
| 20260505040219 | 51 | 162 | 4.0 | 11.0 | 0.00 | 0.30 | 0.21 | 61 | 1003.5 |
| 20260505035719 | 52 | 160 | 5.0 | 19.0 | 0.00 | 0.30 | 0.21 | 61 | 1003.5 |
| 20260505035218 | 52 | 188 | 6.0 | 19.0 | 0.00 | 0.31 | 0.21 | 61 | 1003.7 |
| 20260505034718 | 52 | 102 | 6.0 | 12.0 | 0.00 | 0.31 | 0.21 | 62 | 1003.9 |
| 20260505034218 | 52 | 155 | 6.0 | 12.0 | 0.00 | 0.31 | 0.21 | 62 | 1003.9 |
| 20260505033718 | 52 | 166 | 8.0 | 20.0 | 0.00 | 0.32 | 0.21 | 61 | 1004.0 |
| 20260505033219 | 52 | 152 | 8.0 | 20.0 | 0.00 | 0.32 | 0.21 | 60 | 1004.0 |
| 20260505032724 | 52 | 165 | 9.0 | 22.0 | 0.00 | 0.33 | 0.21 | 61 | 1004.1 |
| 20260505032719 | 52 | 176 | 8.0 | 19.0 | 0.00 | 0.33 | 0.21 | 60 | 1004.0 |
| 20260505031719 | 52 | 114 | 9.0 | 22.0 | 0.00 | 0.33 | 0.21 | 60 | 1004.0 |
| 20260505031224 | 53 | 163 | 10.0 | 20.0 | 0.00 | 0.34 | 0.21 | 59 | 1004.0 |
| 20260505031219 | 53 | 158 | 8.0 | 20.0 | 0.00 | 0.33 | 0.21 | 59 | 1003.9 |
| 20260505030825 | 53 | 144 | 9.0 | 19.0 | 0.00 | 0.34 | 0.21 | 60 | 1004.2 |
| 20260505025718 | 53 | 178 | 9.0 | 21.0 | 0.00 | 0.34 | 0.21 | 61 | 1004.1 |
| 20260505025218 | 53 | 110 | 10.0 | 21.0 | 0.00 | 0.35 | 0.21 | 61 | 1004.2 |
| 20260505024722 | 53 | 139 | 13.0 | 23.0 | 0.00 | 0.35 | 0.21 | 60 | 1004.3 |
| 20260505024718 | 53 | 141 | 12.0 | 23.0 | 0.00 | 0.35 | 0.21 | 61 | 1004.1 |
| 20260505023719 | 53 | 158 | 13.0 | 23.0 | 0.00 | 0.35 | 0.21 | 60 | 1004.3 |
| 20260505023219 | 53 | 158 | 11.0 | 23.0 | 0.00 | 0.35 | 0.21 | 61 | 1004.3 |
| 20260505022718 | 52 | 110 | 12.0 | 21.0 | 0.00 | 0.36 | 0.21 | 62 | 1004.5 |
| 20260505022218 | 52 | 134 | 12.0 | 23.0 | 0.00 | 0.36 | 0.21 | 63 | 1004.8 |
| 20260505021719 | 52 | 129 | 11.0 | 23.0 | 0.00 | 0.36 | 0.21 | 63 | 1005.0 |
| 20260505021219 | 52 | 33 | 9.0 | 21.0 | 0.00 | 0.36 | 0.21 | 62 | 1005.0 |
| 20260505020719 | 52 | 187 | 9.0 | 25.0 | 0.00 | 0.36 | 0.21 | 63 | 1005.3 |
| 20260505020218 | 52 | 179 | 9.0 | 25.0 | 0.00 | 0.36 | 0.21 | 64 | 1005.5 |
| 20260505015719 | 52 | 139 | 8.0 | 16.0 | 0.00 | 0.36 | 0.21 | 65 | 1005.6 |
| 20260505015218 | 51 | 172 | 7.0 | 16.0 | 0.00 | 0.36 | 0.21 | 65 | 1005.7 |
| 20260505014719 | 51 | 162 | 6.0 | 13.0 | 0.00 | 0.36 | 0.21 | 65 | 1005.8 |
| 20260505014219 | 51 | 115 | 7.0 | 17.0 | 0.00 | 0.36 | 0.21 | 66 | 1005.8 |
| 20260505013718 | 51 | 138 | 8.0 | 17.0 | 0.00 | 0.36 | 0.21 | 65 | 1005.9 |
| 20260505013216 | 52 | 164 | 7.0 | 17.0 | 0.00 | 0.36 | 0.21 | 65 | 1006.0 |
| 20260505012721 | 52 | 191 | 7.0 | 14.0 | 0.00 | 0.36 | 0.21 | 63 | 1005.9 |
| 20260505012716 | 52 | 145 | 7.0 | 15.0 | 0.00 | 0.36 | 0.21 | 65 | 1005.8 |
| 20260505012216 | 52 | 189 | 7.0 | 14.0 | 0.00 | 0.36 | 0.21 | 64 | 1005.7 |
| 20260505011217 | 52 | 196 | 7.0 | 18.0 | 0.00 | 0.36 | 0.21 | 63 | 1006.0 |
| 20260505010721 | 53 | 151 | 9.0 | 19.0 | 0.00 | 0.36 | 0.21 | 62 | 1005.9 |
| 20260505010717 | 53 | 158 | 8.0 | 18.0 | 0.00 | 0.36 | 0.21 | 63 | 1005.8 |
| 20260505005717 | 53 | 174 | 11.0 | 26.0 | 0.00 | 0.36 | 0.21 | 63 | 1005.9 |
| 20260505005212 | 53 | 181 | 10.0 | 26.0 | 0.00 | 0.36 | 0.21 | 62 | 1006.1 |
| 20260505004717 | 53 | 151 | 10.0 | 20.0 | 0.00 | 0.36 | 0.21 | 63 | 1006.6 |
| 20260505004713 | 53 | 134 | 9.0 | 20.0 | 0.00 | 0.36 | 0.21 | 62 | 1006.3 |
| 20260505003715 | 53 | 179 | 6.0 | 13.0 | 0.00 | 0.36 | 0.21 | 66 | 1007.0 |
| 20260505003711 | 53 | 189 | 8.0 | 19.0 | 0.00 | 0.36 | 0.21 | 65 | 1006.9 |
| 20260505002711 | 53 | 205 | 5.0 | 11.0 | 0.00 | 0.36 | 0.21 | 66 | 1007.1 |
| 20260505002211 | 53 | 173 | 5.0 | 14.0 | 0.00 | 0.36 | 0.21 | 67 | 1007.1 |
| 20260505001709 | 52 | 166 | 6.0 | 14.0 | 0.00 | 0.36 | 0.21 | 67 | 1007.3 |
| 20260505001204 | 53 | 160 | 5.0 | 11.0 | 0.00 | 0.36 | 0.21 | 67 | 1007.4 |
| 20260505000705 | 53 | 201 | 5.0 | 13.0 | 0.00 | 0.36 | 0.21 | 67 | 1007.4 |
| 20260505000208 | 54 | 213 | 6.0 | 14.0 | 0.00 | 0.36 | 0.21 | 64 | 1007.3 |
| 20260505000204 | 54 | 193 | 5.0 | 13.0 | 0.00 | 0.36 | 0.21 | 67 | 1007.4 |
| 20260504235205 | 55 | 211 | 7.0 | 18.0 | 0.00 | 0.36 | 0.21 | 63 | 1007.4 |
| 20260504234704 | 55 | 197 | 8.0 | 19.0 | 0.00 | 0.36 | 0.21 | 61 | 1007.4 |
| 20260504234204 | 55 | 168 | 8.0 | 19.0 | 0.00 | 0.36 | 0.21 | 60 | 1007.3 |
| 20260504233707 | 55 | 166 | 8.0 | 18.0 | 0.00 | 0.36 | 0.21 | 61 | 1007.4 |
| 20260504233703 | 54 | 116 | 7.0 | 21.0 | 0.00 | 0.36 | 0.21 | 62 | 1007.3 |
| 20260504232702 | 54 | 208 | 7.0 | 21.0 | 0.00 | 0.36 | 0.21 | 63 | 1007.5 |
| 20260504232206 | 53 | 134 | 5.0 | 15.0 | 0.00 | 0.36 | 0.21 | 65 | 1007.7 |
| 20260504232202 | 54 | 128 | 7.0 | 17.0 | 0.00 | 0.36 | 0.21 | 63 | 1007.6 |
| 20260504231202 | 53 | 158 | 5.0 | 14.0 | 0.00 | 0.36 | 0.21 | 67 | 1007.8 |
| 20260504230702 | 52 | 94 | 5.0 | 11.0 | 0.00 | 0.36 | 0.21 | 70 | 1008.0 |
| 20260504230202 | 51 | 33 | 4.0 | 10.0 | 0.00 | 0.36 | 0.21 | 73 | 1008.0 |
| 20260504225702 | 51 | 135 | 6.0 | 13.0 | 0.00 | 0.36 | 0.21 | 76 | 1008.3 |
| 20260504225202 | 50 | 120 | 7.0 | 13.0 | 0.00 | 0.36 | 0.21 | 75 | 1008.4 |
| 20260504224702 | 50 | 92 | 6.0 | 15.0 | 0.00 | 0.36 | 0.21 | 75 | 1008.5 |
| 20260504224202 | 50 | 62 | 6.0 | 15.0 | 0.00 | 0.36 | 0.21 | 74 | 1008.5 |
| 20260504223706 | 49 | 102 | 5.0 | 13.0 | 0.00 | 0.36 | 0.21 | 77 | 1008.8 |
| 20260504223702 | 49 | 91 | 6.0 | 13.0 | 0.00 | 0.36 | 0.21 | 75 | 1008.8 |
| 20260504222700 | 48 | 60 | 5.0 | 10.0 | 0.00 | 0.36 | 0.21 | 79 | 1008.8 |
| 20260504222200 | 48 | 142 | 5.0 | 12.0 | 0.00 | 0.36 | 0.21 | 80 | 1008.9 |
| 20260504221703 | 48 | 66 | 7.0 | 13.0 | 0.00 | 0.36 | 0.21 | 81 | 1009.2 |
| 20260504221659 | 48 | 110 | 6.0 | 12.0 | 0.00 | 0.36 | 0.21 | 80 | 1009.0 |
| 20260504220658 | 47 | 77 | 6.0 | 13.0 | 0.00 | 0.36 | 0.21 | 82 | 1009.2 |
| 20260504220158 | 47 | 47 | 6.0 | 13.0 | 0.00 | 0.36 | 0.21 | 84 | 1009.4 |
| 20260504215657 | 47 | 68 | 7.0 | 14.0 | 0.00 | 0.36 | 0.21 | 84 | 1009.6 |
| 20260504215158 | 46 | 105 | 7.0 | 16.0 | 0.00 | 0.36 | 0.21 | 86 | 1009.6 |